This is the latest recevied weather packets stored in our database for station/object DK9XR-14. If no packets are shown the sender has not sent any weather packets the latest 10 day(s).
| Time | Temp. | Humidity | Pressure | Rain* | Wind** | Luminosity | Snow |
|---|---|---|---|---|---|---|---|
| 1777704774 | 11.11° C | 65% | 1024.7 hPa | 0 mm | - | - | - |
| 1777704474 | 11.11° C | 66% | 1024.7 hPa | 0 mm | - | - | - |
| 1777704174 | 11.11° C | 67% | 1024.6 hPa | 0 mm | - | - | - |
| 1777703873 | 10.56° C | 68% | 1024.7 hPa | 0 mm | - | - | - |
| 1777703574 | 10° C | 70% | 1024.7 hPa | 0 mm | - | - | - |
| 1777703273 | 9.44° C | 71% | 1024.7 hPa | 0 mm | - | - | - |
| 1777702973 | 8.89° C | 71% | 1024.7 hPa | 0 mm | - | - | - |
| 1777702673 | 8.89° C | 72% | 1024.6 hPa | 0 mm | - | - | - |
| 1777702373 | 8.89° C | 73% | 1024.7 hPa | 0 mm | - | - | - |
| 1777702072 | 8.33° C | 73% | 1024.7 hPa | 0 mm | - | - | - |
| 1777701773 | 8.33° C | 74% | 1024.5 hPa | 0 mm | - | - | - |
| 1777701473 | 7.78° C | 75% | 1024.6 hPa | 0 mm | - | - | - |
| 1777701173 | 7.78° C | 74% | 1024.7 hPa | 0 mm | - | - | - |
| 1777700875 | 7.22° C | 76% | 1024.7 hPa | 0 mm | - | - | - |
| 1777700571 | 6.67° C | 77% | 1024.6 hPa | 0 mm | - | - | - |
| 1777700274 | 6.67° C | 77% | 1024.6 hPa | 0 mm | - | - | - |
| 1777699972 | 6.11° C | 77% | 1024.7 hPa | 0 mm | - | - | - |
| 1777699673 | 6.11° C | 76% | 1024.7 hPa | 0 mm | - | - | - |
| 1777699373 | 6.11° C | 76% | 1024.8 hPa | 0 mm | - | - | - |
| 1777699073 | 6.11° C | 76% | 1024.7 hPa | 0 mm | - | - | - |
| 1777698774 | 6.11° C | 77% | 1024.7 hPa | 0 mm | - | - | - |
| 1777698473 | 5.56° C | 81% | 1024.6 hPa | 0 mm | - | - | - |
| 1777698174 | 4.44° C | 83% | 1024.6 hPa | 0 mm | - | - | - |
| 1777697873 | 4.44° C | 83% | 1024.7 hPa | 0 mm | - | - | - |
| 1777697572 | 3.89° C | 83% | 1024.5 hPa | 0 mm | - | - | - |
* Rain latest hour (hover to see other rain measurements)
** Current wind speed in m/s (hover to see current wind gust speed)